SEASAT 1 1 10967U 78064A 12037.42936738 .00000126 00000-0 79204-4 0 6298 2 10967 108.0042 174.2786 0001882 236.7019 123.3944 14.42442643764199 LANDSAT 4 1 13367U 82072A 12037.17966091 .00002466 00000-0 17555-3 0 9715 2 13367 098.2651 025.9556 0017219 337.1966 022.8500 15.05582421589338 LANDSAT 5 1 14780U 84021A 12037.38032565 .00000157 00000-0 44737-4 0 6539 2 14780 098.1628 105.5372 0002583 357.5345 002.5844 14.57152334485790 COSMOS 1602 1 15331U 84105A 12037.22735061 .00001606 00000-0 11700-3 0 5698 2 15331 082.5235 066.6592 0013558 178.6061 181.5205 15.03040091486727 SPOT 1 1 16613U 86019A 12037.23236489 .00000461 00000-0 90081-4 0 2559 2 16613 098.6529 308.3776 0150771 333.9025 025.4628 14.61416262 43139 COSMOS 1766 1 16881U 86055A 12037.14909048 .00001668 00000-0 12749-3 0 2457 2 16881 082.5132 126.5758 0012032 266.8871 093.0965 15.01278422386727 MOS 1A (MOMO 1) 1 17527U 87018A 12036.93726839 -.00000181 00000-0 -89403-4 0 8949 2 17527 099.0975 003.2619 0007824 292.4728 067.5603 14.02050030275005 IRS 1A 1 18960U 88021A 12036.76411311 .00000341 00000-0 28008-3 0 4229 2 18960 099.4066 028.8439 0014829 140.6482 219.5733 13.96509524121179 OKEAN 1 1 19274U 88056A 12037.53082772 .00001286 00000-0 10579-3 0 5928 2 19274 082.5050 242.9056 0015350 120.5856 239.6905 14.98249711281038 SPOT 2 1 20436U 90005A 12037.47092501 .00000989 00000-0 17434-3 0 786 2 20436 098.6556 164.5496 0153307 202.2934 157.1563 14.62746901146450 MOS 1B (MOMO 1B) 1 20478U 90013A 12037.43598760 .00000041 00000-0 62446-4 0 5547 2 20478 099.0328 347.3945 0006202 044.0567 316.1088 13.95061579 40743 OKEAN 2 1 20510U 90018A 12036.88296036 .00000943 00000-0 88173-4 0 9515 2 20510 082.5176 243.8995 0015539 088.3734 271.9265 14.92964303188612 OKEAN 3 1 21397U 91039A 12036.98472315 .00000962 00000-0 10239-3 0 5402 2 21397 082.5220 192.3638 0018226 288.4624 071.4612 14.87824613118115 ERS 1 1 21574U 91050A 12036.87782153 .00000323 00000-0 12436-3 0 2571 2 21574 098.1983 019.3745 0034821 058.3286 302.1291 14.36021013 76370 IRS 1B 1 21688U 91061A 12037.44585081 .00000244 00000-0 20442-3 0 3629 2 21688 098.7684 014.3072 0024569 340.2811 019.7391 13.97007834936258 TOPEX/POSEIDON 1 22076U 92052A 12037.54442812 -.00000038 00000-0 10000-3 0 8072 2 22076 066.0375 227.5510 0007144 265.3080 094.7120 12.80964224911763 SPOT 3 1 22823U 93061A 12037.45078256 .00000074 00000-0 56248-4 0 481 2 22823 098.6961 344.3314 0017637 111.3594 248.9466 14.18803212950876 OKEAN 4 1 23317U 94066A 12037.18364808 .00000887 00000-0 10436-3 0 7967 2 23317 082.5417 154.5811 0023150 068.7884 291.5801 14.83570771935233 IRS P2 1 23323U 94068A 12036.97398559 .00000075 00000-0 51968-4 0 1051 2 23323 098.5443 349.1186 0000867 068.5116 291.6155 14.23209494898886 RESURS O1 1 23342U 94074A 12036.89794013 .00000402 00000-0 64156-4 0 4640 2 23342 098.1284 025.7641 0000533 036.3552 323.7693 14.77242532928445 ERS 2 1 23560U 95021A 12037.38810058 .00002616 00000-0 20325-3 0 2329 2 23560 098.5040 134.7050 0005539 046.1258 314.0413 15.02338486879574 SICH 1 1 23657U 95046A 12036.87169416 .00000509 00000-0 60188-4 0 5954 2 23657 082.5310 296.0385 0025393 070.0198 290.3743 14.82439113886987 RADARSAT 1 23710U 95059A 12037.50749269 .00000233 00000-0 10723-3 0 2397 2 23710 098.5817 045.7244 0001034 088.3054 063.1863 14.29980872848620 IRS 1C 1 23751U 95072A 12037.49450352 .00000117 00000-0 71959-4 0 9259 2 23751 098.4311 008.4341 0001199 079.3078 068.2413 14.21984175836104 IRS B3 1 23827U 96017A 12037.47497960 .00000112 00000-0 69763-4 0 3593 2 23827 098.5221 349.3861 0003115 325.8919 034.2058 14.21890670824141 TOMS EP 1 23940U 96037A 12037.46229693 .00000417 00000-0 11150-3 0 8629 2 23940 097.9212 236.5090 0028421 247.1286 112.6914 14.52728086829390 ADEOS 1 24277U 96046A 12036.86807267 .00000074 00000-0 46369-4 0 8603 2 24277 098.4958 344.4541 0000969 000.9825 359.1352 14.28744526806522 ORBVIEW 2 (SEASTAR) 1 24883U 97037A 12036.92420255 .00000184 00000-0 83662-4 0 6463 2 24883 098.3991 159.3969 0002842 132.9681 227.1749 14.32397923771464 IRS 1D 1 24971U 97057A 12037.47424519 .00000132 00000-0 62102-4 0 2994 2 24971 098.1900 037.7870 0053017 296.4841 063.0916 14.33147650750937 TRMM 1 25063U 97074A 12037.50154835 .00015600 00000-0 21616-3 0 8942 2 25063 034.9626 080.1320 0000320 277.5086 082.5549 15.56145030810396 SPOT 4 1 25260U 98017A 12037.51020873 .00000053 00000-0 45010-4 0 1230 2 25260 098.5819 103.0717 0000941 049.3203 310.8059 14.20094147719196 RESURS O1-N4 1 25394U 98043A 12036.90821884 .00000027 00000-0 29262-4 0 73 2 25394 098.3103 032.1741 0000646 301.8149 058.2967 14.24272158705576 FASAT B 1 25395U 98043B 12037.08972340 .00000123 00000-0 70790-4 0 2518 2 25395 098.3112 031.2477 0001894 268.4489 091.6471 14.24519300705668 TMSAT 1 25396U 98043C 12037.01281972 .00000070 00000-0 48380-4 0 2001 2 25396 098.3267 027.9557 0002112 307.5068 052.5917 14.23904176705459 TECHSAT 1B 1 25397U 98043D 12036.59900617 -.00000092 00000-0 -22541-4 0 6964 2 25397 098.3491 021.9333 0001036 358.5509 001.5669 14.23255319705169 ROCSAT 1 1 25616U 99002A 12037.24118947 .00003507 00000-0 24781-3 0 5636 2 25616 034.9641 074.3810 0045764 267.4003 092.1458 15.03552510712398 SUNSAT 1 25636U 99008C 12036.97170889 .00000209 00000-0 61412-4 0 1282 2 25636 096.4614 005.3960 0149035 050.2047 311.2160 14.43699476682145 LANDSAT 7 1 25682U 99020A 12037.21432233 .00000138 00000-0 40682-4 0 7901 2 25682 098.2137 107.3494 0000844 129.0815 231.0471 14.57105164681462 OSCAR 36 (UOSAT 12) 1 25693U 99021A 12037.44690178 .00000175 00000-0 42680-4 0 7432 2 25693 064.5578 032.8531 0038397 231.1825 128.5853 14.79135027690439 KITSAT 3 1 25756U 99029A 12037.23253946 .00000125 00000-0 41924-4 0 7328 2 25756 098.5644 271.6871 0014784 115.7099 244.5623 14.52763640673113 TUBSAT 1 25757U 99029B 12037.46514671 .00000055 00000-0 25976-4 0 7757 2 25757 098.6100 263.9676 0014498 151.3895 208.8102 14.50949262672535 IRS P4 (OCEANSAT 1) 1 25758U 99029C 12036.90040855 .00000187 00000-0 58345-4 0 9703 2 25758 098.2591 130.5390 0001880 147.4865 212.6444 14.51072400672604 QUIKSCAT 1 25789U 99034A 12037.53454755 .00000048 00000-0 37910-4 0 2198 2 25789 098.6231 228.5181 0001015 040.7060 319.4191 14.26888893657972 OKEAN O 1 25860U 99039A 12037.51151939 .00000406 00000-0 69117-4 0 5396 2 25860 097.9173 002.9932 0000979 033.9606 326.1664 14.74076876675170 IKONOS 2 1 25919U 99051A 12037.42148538 .00000219 00000-0 50335-4 0 3488 2 25919 098.1125 113.6744 0000883 082.8712 277.2589 14.64444670661189 CBERS 1 1 25940U 99057A 12036.88040244 .00000137 00000-0 63151-4 0 961 2 25940 098.2458 007.5273 0006223 081.0402 279.1491 14.34652480644970 TERRA 1 25994U 99068A 12037.43630979 .00000188 00000-0 51690-4 0 6983 2 25994 098.2068 113.3878 0000955 081.8701 278.2600 14.57091085645571 KOMPSAT 1 26032U 99070A 12037.44963696 .00000503 00000-0 99467-4 0 7117 2 26032 097.7923 251.2110 0006078 061.0346 299.1471 14.66207896648746 TIUNGSAT 1 1 26548U 00057D 12035.92722007 +.00000747 +00000-0 +10555-3 0 02526 2 26548 064.5534 339.7001 0034024 316.8177 043.0259 14.84374772614789 EO 1 1 26619U 00075A 12037.36860200 .00000209 00000-0 50476-4 0 543 2 26619 098.0951 104.9832 0010392 159.7645 200.3962 14.62516224597160 SAC C 1 26620U 00075B 12036.54978147 .00000364 00000-0 90724-4 0 5204 2 26620 097.8820 032.2667 0000876 097.9841 262.1468 14.56800447595914 EROS A1 1 26631U 00079A 12037.54071345 .00005062 00000-0 30494-3 0 8564 2 26631 097.6227 108.0203 0005732 300.2901 170.7357 15.11229879620574 QUICKBIRD 2 1 26953U 01047A 12037.46788194 .00006338 00000-0 19772-3 0 1897 2 26953 097.2389 104.5306 0001147 065.5858 113.3665 15.33565203578721 TES 1 26957U 01049A 12037.42721940 -.00001749 00000-0 -13150-3 0 1476 2 26957 097.6387 113.5023 0035145 173.4785 186.6891 15.00740777563842 JASON 1 26997U 01055A 12034.87725175 -.00000038 +00000-0 +10000-3 0 04560 2 26997 066.0383 233.1293 0006780 269.1538 090.8702 12.80930370475217 METEOR 3M 1 27001U 01056A 12035.96964199 -.00000033 +00000-0 +10413-4 0 00627 2 27001 099.1910 223.4939 0014249 051.6985 308.5440 13.68731996507220 BADR B 1 27003U 01056C 12036.67365858 -.00000027 00000-0 16395-4 0 38 2 27003 099.1583 230.5802 0020867 044.9224 315.3605 13.70128302507896 MAROC TUBSAT 1 27004U 01056D 12037.07064540 .00000024 00000-0 74373-4 0 8515 2 27004 099.1555 230.0680 0020438 045.0789 315.2005 13.70049383507914 ENVISAT 1 27386U 02009A 12037.41633091 -.00000307 00000-0 -88094-4 0 9745 2 27386 098.4778 107.6816 0000953 092.3555 267.7739 14.37491213519760 SPOT 5 1 27421U 02021A 12037.52427083 -.00000036 00000-0 34575-5 0 434 2 27421 098.6689 111.7843 0001302 095.8202 088.9288 14.20062041506027 AQUA 1 27424U 02022A 12036.70058374 .00000483 00000-0 11738-3 0 2059 2 27424 098.2210 339.0627 0001235 082.6691 277.4632 14.57090522519074 HAIYANG 1 1 27430U 02024A 12036.69011771 .00000081 00000-0 47404-4 0 8528 2 27430 098.3460 085.6034 0009810 112.3383 247.8838 14.29980639507758 ALSAT 1 1 27559U 02054A 12037.45955808 .00000363 00000-0 68419-4 0 3646 2 27559 097.8097 252.9582 0023865 154.5910 205.6477 14.69818006491336 ADEOS 2 1 27597U 02056A 12037.55118166 .00000118 00000-0 66071-4 0 6484 2 27597 098.3437 078.8827 0001196 025.9632 334.1613 14.26377691476251 ICESAT (Decayed 2010-08-30) 1 27642U 03002A 10242.29496145 .32829894 29777-6 27939-3 0 7810 2 27642 093.9657 159.5990 0008035 042.2770 318.2079 16.52038191415543 ORBVIEW 3 (Decayed 2011-03-13) 1 27838U 03030A 11072.19604280 .02372952 22421-5 68990-3 0 4137 2 27838 096.9618 120.7668 0096363 024.3634 023.5239 16.16168790433377 IRS P6 1 28051U 03046A 12037.46623558 .00000057 00000-0 45469-4 0 6183 2 28051 098.6132 111.0154 0001606 203.2514 156.8595 14.21675337431129 CBERS 2 1 28057U 03049A 12037.49394360 .00000091 00000-0 46173-4 0 692 2 28057 098.1687 058.7115 0001860 023.6389 336.4885 14.35077778434698 TANSUO 1 1 28220U 04012A 12037.53927873 .00001229 00000-0 13205-3 0 942 2 28220 097.4538 034.8041 0010502 222.2998 137.7405 14.90199401423929 ROCSAT 2 1 28254U 04018A 12037.50324515 -.00000005 00000-0 25874-4 0 6838 2 28254 098.9873 103.2253 0002458 134.5512 339.9260 14.00778492394520 AURA 1 28376U 04026A 12037.53014981 .00000463 00000-0 11285-3 0 3641 2 28376 098.2233 342.0328 0001100 092.1577 267.9733 14.57102300402242 CARTOSAT-1 1 28649U 05017A 12037.41371219 .00000626 00000-0 84117-4 0 6045 2 28649 097.8534 112.2715 0000634 112.3106 247.8173 14.82662170365736 TOPSAT 1 28891U 05043B 12037.40048709 .00000155 00000-0 41425-4 0 32 2 28891 097.9207 266.9884 0016664 201.3126 158.7383 14.60059086334548 SINAH 1 1 28893U 05043D 12036.70396784 .00000188 00000-0 48100-4 0 2951 2 28893 097.9294 268.3144 0014970 202.9858 157.0673 14.60315072334519 ALOS 1 28931U 06002A 12037.36661586 .00000468 00000-0 10751-3 0 7381 2 28931 098.0915 109.7923 0001413 051.7320 308.4008 14.59763648321546 EROS B 1 29079U 06014A 12037.47063192 .00007816 00000-0 38649-3 0 4982 2 29079 097.4343 157.2908 0004855 245.9348 177.5064 15.18089688320872 YAOGAN 1 1 29092U 06015A 12037.00059666 .00000408 00000-0 59808-4 0 64 2 29092 097.9154 028.4970 0001211 069.3435 290.7908 14.80744658312361 RESURS DK-1 1 29228U 06021A 12037.49453869 .00000409 00000-0 41163-4 0 3359 2 29228 069.9355 028.6828 0002380 132.3569 012.9866 14.99269449314364 KOMPSAT 2 1 29268U 06031A 12037.38384723 .00000298 00000-0 69486-4 0 1435 2 29268 098.2782 288.5402 0015998 035.7060 324.5192 14.61659119294933 LAPAN-TUBSAT 1 29709U 07001A 12037.48074843 .00000256 00000-0 39842-4 0 6378 2 29709 097.6781 074.5010 0014079 026.2780 333.9149 14.80586211274146 CARTOSAT 2AT 1 29710U 07001B 12037.38121704 .00000155 00000-0 28099-4 0 6132 2 29710 097.9256 098.8028 0001483 072.6914 287.4453 14.78679477273879 HAIYANG 1B 1 31113U 07010A 12037.53238692 .00000113 00000-0 60601-4 0 3602 2 31113 098.4296 101.8452 0014767 105.2925 254.9891 14.29648016251714 SKYMED 1 1 31598U 07023A 12037.44215631 .00000326 00000-0 47435-4 0 1841 2 31598 097.8663 224.7730 0001256 091.7593 268.3740 14.82162955252451 TERRA SAR X 1 31698U 07026A 12037.51731837 .00000615 00000-0 32480-4 0 5551 2 31698 097.4451 046.1291 0001535 086.3694 029.7635 15.19157128257671 WORLDVIEW 1 1 32060U 07041A 12037.46021991 .00003648 00000-0 15162-3 0 8895 2 32060 097.3434 116.5976 0001862 074.1992 106.6760 15.24427277243991 CBERS 2B 1 32062U 07042A 12037.22291555 .00000113 00000-0 50637-4 0 5402 2 32062 098.3938 112.6464 0031758 315.5751 044.2896 14.38765331230010 SKYMED 2 1 32376U 07059A 12037.40840203 .00001206 00000-0 15796-3 0 5958 2 32376 097.8663 224.7411 0001257 090.4922 269.6435 14.82167748225196 RADARSAT 2 1 32382U 07061A 12037.47526684 .00000105 00000-0 57819-4 0 5881 2 32382 098.5785 046.3831 0001068 088.6293 067.1702 14.29984062216500 CARTOSAT 2A 1 32783U 08021A 12037.42783656 .00000554 00000-0 82584-4 0 1861 2 32783 097.9265 099.3854 0015268 166.1602 194.0026 14.78656710203827 IMS-1 1 32786U 08021D 12037.48918894 -.00000566 00000-0 -67832-4 0 6706 2 32786 097.8203 098.5499 0014101 138.6031 221.6280 14.80094028204025 GLAST 1 33053U 08029A 12036.85265026 .00000280 00000-0 00000+0 0 9785 2 33053 025.5855 326.1571 0013705 029.3736 330.7536 15.05998081201249 JASON 2 1 33105U 08032A 12037.09928997 -.00000050 00000-0 46041-4 0 1987 2 33105 066.0390 228.7873 0007295 272.2410 087.7778 12.80930732169809 RAPIDEYE 2 1 33312U 08040A 12037.41192031 .00000370 00000-0 55976-4 0 8498 2 33312 097.9240 127.8431 0010876 223.2449 136.7910 14.79881251185815 RAPIDEYE 5 1 33313U 08040B 12037.43747754 .00000375 00000-0 56550-4 0 8392 2 33313 097.9212 127.0916 0019868 096.3773 263.9700 14.79878152185764 RAPIDEYE 1 1 33314U 08040C 12037.42516984 .00000404 00000-0 60361-4 0 8861 2 33314 097.9222 127.9099 0023058 237.8708 122.0265 14.79875702185807 RAPIDEYE 3 1 33315U 08040D 12037.46392837 .00000347 00000-0 52858-4 0 8177 2 33315 097.9195 127.0888 0012413 165.5627 194.5938 14.79878235185775 RAPIDEYE 4 1 33316U 08040E 12037.44997904 .00000352 00000-0 53555-4 0 8117 2 33316 097.9192 126.9076 0013840 114.0146 246.2514 14.79878227185765 HJ-1A 1 33320U 08041A 12037.38877838 .00000803 00000-0 12364-3 0 7751 2 33320 097.8803 109.5743 0023863 215.8616 144.0984 14.75964665184060 HJ-1B 1 33321U 08041B 12037.41919586 .00000637 00000-0 98670-4 0 8316 2 33321 097.8825 109.8214 0041626 229.6131 130.1441 14.76005229184059 GEOEYE 1 1 33331U 08042A 12037.45510872 .00000217 00000-0 49901-4 0 7942 2 33331 098.1074 112.4734 0008967 288.9888 071.0348 14.64445350182603 THEOS 1 33396U 08049A 12037.49280421 .00000169 00000-0 10000-3 0 5804 2 33396 098.7131 106.5261 0000841 083.2447 044.2357 14.20047407173631 SKYMED 3 1 33412U 08054A 12037.39570463 .00001540 00000-0 19988-3 0 6221 2 33412 097.8662 224.7285 0001395 096.7501 263.3855 14.82174615177656 YAOGAN 4 1 33446U 08061A 12037.42240639 -.00000037 00000-0 18438-5 0 5343 2 33446 097.8070 105.6072 0017871 161.7283 198.4577 14.74459801171335 YAOGAN 5 1 33456U 08064A 12037.49239583 .00007845 00000-0 24361-3 0 5332 2 33456 097.2726 110.7592 0009679 203.9418 343.4417 15.33591950175267 YAOGAN 6 1 34839U 09021A 12037.49098868 .00005086 00000-0 22012-3 0 1366 2 34839 097.5488 125.7102 0001507 024.0054 105.9323 15.22882088154913 RAZAKSAT 1 35578U 09037A 12037.41521636 .00000818 00000-0 48560-4 0 8407 2 35578 008.9878 029.7252 0017152 260.9437 098.8838 14.65296653137668 DEIMOS 1 1 35681U 09041A 12037.42856401 .00000173 00000-0 37285-4 0 8023 2 35681 098.0473 298.3959 0001672 102.9613 257.1770 14.69660499135382 OCEANSAT 2 1 35931U 09051A 12037.37944790 .00006032 00000-0 15388-2 0 6379 2 35931 098.2769 135.1502 0003664 104.2195 255.9397 14.50879792125585 WORLDVIEW 2 1 35946U 09055A 12037.43395745 .00000150 00000-0 64614-4 0 5884 2 35946 098.4915 118.5151 0001817 138.1333 221.9988 14.37633471122201 SMOS 1 36036U 09059A 12037.02826291 -.00000043 00000-0 00000+0 0 7001 2 36036 098.4412 225.5967 0000712 105.0937 255.0353 14.39750925118850 YAOGAN 7 1 36110U 09069A 12037.48342417 -.00000111 00000-0 -89152-5 0 4025 2 36110 097.9415 173.0859 0025072 267.9110 091.9266 14.74456127116331 YAOGAN 10 1 36834U 10038A 12037.49034076 .00000370 00000-0 54785-4 0 6600 2 36834 097.8324 040.5605 0001183 049.4496 310.6819 14.80653338 80724 SKYMED 4 1 37216U 10060A 12037.49278494 .00001098 00000-0 14437-3 0 4193 2 37216 097.8659 224.8248 0001271 085.6249 274.5130 14.82165600 67750 SAC-D (AQUARIUS) 1 37673U 11024A 12036.55211018 -.00000049 00000-0 00000+0 0 2164 2 37673 098.0107 045.1069 0001239 083.8836 276.2515 14.72327374 35308